Lapse_Rate
1.7 1.7 2.3 2.4 2.7 3.2 3.5 3.7 3.8 3.7 3.6 3.6 3.7 3.6 3.6 3.5 3.4 3.3 3.4 3.4 3.7 3.8 3.8 3.6 3.6 3.6 4.0 3.9 3.9 3.9 4.1 4.4 4.7 5.0 5.3 5.3 5.5 5.5 5.4 6.1 6.0 5.6 5.1
1.3 1.8 2.4 2.6 2.8 3.2 3.8 4.1 4.3 4.2 4.0 3.9 4.0 3.8 3.5 3.5 3.5 3.5 3.8 3.9 4.1 4.1 3.9 3.9 3.7 3.8 3.5 3.4 3.6 3.8 4.4 4.8 5.3 5.9 5.8 5.7 5.1 5.2 5.2 5.4 5.5 5.4 5.6
1.6 2.2 2.3 2.5 3.1 3.8 4.1 4.3 4.4 4.2 4.1 4.2 4.0 3.7 3.6 3.6 3.7 3.8 3.8 3.9 4.1 4.2 4.1 3.7 3.6 3.3 3.1 3.0 3.1 3.5 3.7 4.3 4.6 5.1 5.9 6.0 5.6 5.0 4.7 4.8 5.2 5.5 5.5
2.8 2.2 2.4 2.8 3.4 3.9 4.6 4.6 4.4 4.4 4.4 4.4 4.4 4.2 4.0 4.0 4.0 4.2 4.2 4.1 4.3 4.4 4.2 4.0 3.7 3.3 2.8 2.7 2.9 3.3 3.6 4.1 4.3 5.2 6.1 6.1 7.0 5.6 5.1 4.7 5.2 5.5 5.6
2.8 2.6 2.6 2.8 3.0 3.7 4.1 4.4 4.8 5.2 5.2 4.9 4.9 4.7 4.3 4.1 3.7 3.5 3.3 3.3 3.7 4.2 4.6 4.3 3.9 3.4 3.2 3.1 3.0 3.0 3.3 3.3 4.5 5.2 5.9 5.1 6.5 6.9 5.6 5.0 4.9 5.2 5.5
2.7 2.4 2.6 2.9 2.9 2.8 3.2 3.2 3.1 3.3 3.5 3.6 3.8 4.3 4.3 3.9 3.7 3.5 3.5 3.6 3.7 3.8 3.8 3.7 3.4 3.0 2.8 3.1 3.1 3.2 3.3 3.1 4.1 4.1 4.4 5.2 5.7 5.7 5.4 4.9 4.9 5.0 5.2
2.7 2.4 2.4 2.3 2.3 2.4 2.6 2.2 2.7 3.4 3.6 3.6 3.8 4.0 3.8 3.9 3.5 3.5 3.2 3.0 3.1 3.2 3.4 3.3 3.1 3.1 3.3 3.6 3.8 3.8 4.1 4.0 4.0 3.2 3.3 3.2 4.1 5.4 5.3 5.0 4.5 4.7 4.9
2.9 2.6 2.3 2.4 2.4 2.2 2.6 2.3 2.5 2.7 2.7 2.6 3.0 3.3 3.1 2.9 3.1 3.1 3.2 3.5 3.9 4.0 4.0 3.6 3.5 3.6 3.8 4.3 4.4 4.4 4.7 4.8 4.2 3.1 3.6 3.1 3.8 4.6 4.6 5.2 4.6 4.4 4.8
3.5 2.9 2.7 2.6 2.6 1.9 2.1 1.4 1.6 2.3 2.6 3.1 2.8 3.0 2.9 2.8 3.7 3.8 4.0 4.2 4.2 4.6 4.9 4.7 4.6 4.6 4.4 4.7 4.6 5.2 5.6 6.5 4.3 3.6 3.9 4.0 4.4 4.7 4.7 5.3 5.0 4.5 4.5
4.1 3.6 3.2 2.9 2.6 2.6 1.8 1.5 1.9 1.9 2.0 2.7 2.6 2.8 3.2 4.2 4.6 4.5 4.3 4.4 4.2 4.2 4.4 5.0 4.5 5.2 4.7 4.4 4.8 4.7 5.5 6.3 5.1 3.0 3.4 4.6 5.5 5.4 5.3 4.9 4.8 4.5 4.5
4.9 4.8 4.8 3.5 2.7 2.7 2.2 1.6 1.5 2.2 2.4 2.4 3.3 3.5 2.3 3.7 4.1 4.3 4.3 4.3 4.4 4.7 4.2 4.8 5.2 5.5 4.8 4.6 4.8 5.4 5.8 4.3 3.4 3.6 4.5 5.9 6.1 5.7 5.1 5.2 5.0 4.7 4.4
4.8 3.7 3.7 2.7 2.1 2.4 2.0 1.7 2.1 2.3 2.2 2.4 3.0 2.3 3.0 4.1 4.7 5.2 5.1 5.4 5.8 5.8 5.3 5.7 5.8 5.8 5.6 5.4 5.4 5.5 5.8 4.9 4.3 4.3 5.3 6.2 6.3 6.4 5.8 5.5 5.7 5.2 5.3
4.2 3.7 3.7 1.7 0.7 0.5 1.0 2.1 2.3 2.4 2.3 3.0 3.6 3.6 4.0 4.7 5.3 5.4 5.4 5.1 5.0 5.2 4.9 5.3 5.2 5.7 6.4 6.5 6.6 6.3 6.3 5.1 4.6 5.0 6.0 6.3 6.7 6.9 6.9 6.6 6.0 5.4 4.9
2.7 3.2 2.2 0.9 0.3 1.0 1.5 2.2 2.3 2.0 2.6 3.1 3.4 4.2 4.8 4.7 4.6 4.2 4.4 4.7 4.3 4.5 4.6 5.7 5.0 6.6 7.2 7.1 7.6 7.5 7.2 6.6 5.4 5.7 6.4 6.6 7.3 8.0 7.8 7.5 7.1 6.8 6.9
2.1 2.2 2.4 1.6 1.3 1.9 2.1 2.3 3.0 3.3 3.3 4.1 4.7 5.3 5.5 4.5 4.0 4.8 4.4 4.7 4.9 5.3 4.4 5.2 5.6 5.6 6.1 6.1 6.4 6.8 7.5 7.7 6.3 6.0 6.4 7.0 7.3 8.5 8.5 8.2 8.2 8.1 8.7
3.4 2.4 2.4 2.9 2.8 3.9 3.3 3.3 3.6 4.2 4.9 5.1 4.9 5.2 5.3 5.1 4.7 4.9 4.8 4.8 4.9 5.7 5.6 5.3 5.5 4.9 4.9 5.3 5.1 5.5 7.4 7.9 7.5 6.4 6.5 6.9 7.4 8.2 8.6 8.6 9.1 9.1 9.2
2.8 2.7 2.5 2.2 3.6 4.1 3.9 3.9 4.6 5.0 5.3 4.9 5.1 5.8 5.9 6.2 5.9 5.2 4.5 4.4 4.3 4.9 4.4 4.0 4.3 5.0 3.6 4.7 4.1 4.6 6.0 7.2 7.3 6.8 6.7 6.8 7.0 8.1 8.1 8.7 9.6 9.6 9.5
3.0 3.0 4.0 5.3 4.2 4.4 5.4 6.5 6.7 6.3 5.3 5.0 5.5 5.9 5.8 5.5 5.8 5.5 3.9 3.0 3.9 3.8 2.9 2.8 2.3 2.7 1.5 2.6 2.3 2.9 3.9 6.0 6.2 6.0 6.5 6.7 7.0 7.0 6.9 7.5 8.5 8.7 8.8
4.0 3.5 3.0 3.1 3.2 3.8 5.5 5.9 6.0 6.2 5.2 5.1 5.3 5.5 5.9 5.6 4.9 5.1 4.3 3.5 3.9 2.7 1.9 1.9 1.9 1.1 1.1 1.7 3.2 3.4 3.2 4.4 4.7 6.2 6.6 6.6 6.7 6.6 6.8 7.4 7.6 7.9 8.5
4.3 3.3 2.7 2.6 2.3 3.9 4.5 5.0 5.2 4.8 4.9 5.6 5.2 5.0 5.1 5.1 5.4 4.5 4.9 3.8 3.5 2.4 1.6 2.1 1.4 2.5 1.5 1.1 4.6 3.6 3.3 4.2 4.7 5.1 5.6 6.5 6.6 6.8 7.0 7.4 7.6 7.8 8.0
3.5 2.9 2.4 2.0 2.8 2.8 3.1 3.2 3.2 3.3 3.2 3.9 4.7 4.9 4.7 4.6 4.6 3.9 3.8 3.6 3.4 1.7 1.2 2.2 1.5 2.0 1.4 1.1 1.0 2.7 3.5 3.8 3.9 4.9 5.8 5.6 6.0 6.9 7.3 7.6 8.2 8.1 7.8
2.8 2.7 2.2 3.0 3.3 3.6 3.8 4.3 4.1 3.7 3.8 4.2 4.6 4.4 4.7 4.7 4.5 3.7 3.3 2.7 3.0 1.9 1.1 1.1 1.1 1.7 2.1 1.3 1.5 1.7 2.4 3.0 3.3 4.2 4.9 5.7 5.3 6.9 6.9 7.9 8.7 8.7 8.0
2.7 2.4 3.1 3.4 4.5 4.9 4.6 4.5 4.1 4.1 4.5 3.9 3.3 3.0 4.0 4.5 4.1 3.8 3.7 3.0 2.9 2.5 0.7 1.0 0.9 1.5 2.4 3.3 2.9 3.1 3.5 3.6 2.2 3.5 3.6 3.0 4.3 5.0 6.3 7.5 8.0 8.1 8.1
2.7 2.9 3.2 4.0 4.9 4.5 4.8 3.8 3.9 3.8 4.8 4.3 2.7 2.7 3.5 4.3 4.2 3.7 3.7 3.2 2.7 2.6 1.2 2.1 2.8 1.4 1.8 2.4 3.4 5.3 4.6 5.1 5.1 3.8 3.4 3.6 4.3 5.1 5.2 6.5 7.2 7.7 7.6
3.3 3.1 3.5 4.7 4.6 4.6 3.8 3.9 3.8 3.8 4.1 3.3 2.9 2.3 2.4 3.3 3.9 3.9 3.2 3.1 2.6 2.5 2.6 2.5 1.8 1.8 1.7 2.6 3.2 3.8 4.1 3.9 4.4 5.0 4.5 3.5 3.9 4.1 5.6 6.4 6.9 7.3 7.2
3.9 3.9 4.1 4.6 4.6 4.9 4.9 4.6 4.1 3.7 3.1 3.3 3.7 3.3 2.7 2.2 2.8 3.7 3.5 2.8 3.0 2.7 2.8 2.8 3.2 2.7 2.5 2.6 3.0 3.4 4.6 5.6 6.0 5.7 5.3 5.0 5.0 4.4 4.9 6.3 6.7 7.1 7.5
Wind_Speed
3 11 17 21 22 20 20 18 19 20 19 18 18 19 18 19 19 18 17 17 16 16 16 16 15 15 14 13 12 13 14 14 13 13 12 12 13 15 22 16 15 13 14
14 14 19 19 20 21 19 19 19 19 19 18 18 19 20 20 19 19 18 17 16 16 16 16 15 15 14 13 13 14 14 12 10 8 8 10 11 13 16 17 14 12 12
14 15 17 21 20 19 19 19 19 19 18 18 19 20 20 20 19 19 19 18 18 18 17 17 16 16 16 15 16 17 16 16 14 11 9 3 9 12 14 15 12 11 10
19 17 18 23 22 22 22 22 21 20 19 19 19 20 20 21 19 20 20 19 18 17 17 16 16 15 14 14 15 17 18 18 21 20 15 8 7 9 13 13 11 9 6
18 18 20 24 26 25 25 25 23 22 22 22 22 22 22 21 22 23 24 23 20 18 16 15 14 13 13 13 13 14 17 20 24 22 4 15 6 12 13 14 13 9 9
16 18 24 26 25 27 26 27 29 28 28 27 27 26 24 22 20 19 17 16 15 14 13 14 15 15 14 14 13 14 15 19 21 20 25 20 18 19 17 18 18 11 8
14 18 23 26 26 25 24 26 25 25 24 23 23 21 21 20 19 18 16 16 16 16 15 13 11 10 10 12 12 14 16 18 16 17 18 17 20 19 19 19 20 18 16
16 18 20 24 24 25 22 25 25 23 22 23 23 22 21 21 18 17 16 16 15 15 15 14 14 13 13 13 13 14 15 18 14 19 16 14 16 14 16 15 17 16 15
20 18 19 20 22 26 23 27 26 21 20 21 24 23 20 21 15 16 17 17 16 15 16 15 14 12 12 15 18 19 19 20 19 17 16 15 18 18 18 15 13 13 13
14 14 16 19 22 18 20 26 25 21 19 16 15 19 20 21 17 16 17 15 14 16 19 23 25 26 15 15 24 25 21 21 21 15 16 16 19 18 16 14 15 14 13
9 10 13 16 17 17 17 19 20 19 19 16 11 14 21 19 12 12 16 17 23 16 18 22 24 23 22 22 22 25 25 20 19 15 16 22 24 23 21 20 18 16 17
9 10 13 15 14 15 14 17 20 17 20 20 19 19 27 20 17 14 16 20 20 20 20 18 17 17 19 19 20 21 19 17 15 13 16 24 25 24 24 24 25 24 21
9 8 9 14 14 14 13 14 14 16 19 20 21 22 21 16 14 13 15 13 15 18 19 19 18 13 12 11 14 16 17 16 15 14 16 25 24 24 24 25 25 24 25
9 8 9 12 12 14 13 13 18 14 17 16 14 14 13 11 12 12 13 15 20 23 18 20 18 18 15 14 10 13 16 16 13 16 18 24 24 24 23 24 24 23 25
8 6 6 10 10 11 12 16 14 13 17 16 19 16 13 10 12 17 17 19 20 22 20 18 18 16 18 18 19 12 11 14 14 16 19 22 22 24 23 23 24 24 23
8 6 6 7 13 14 13 15 13 18 18 17 18 17 16 19 16 17 16 17 19 21 21 19 16 14 14 17 15 16 8 9 16 13 17 18 22 22 24 22 23 23 22
6 8 6 7 13 10 10 12 15 17 18 17 19 21 20 20 19 17 16 13 15 22 22 21 19 18 13 15 12 15 13 14 16 20 17 13 16 21 27 18 26 24 22
8 7 8 9 9 9 7 12 15 18 18 19 19 19 22 19 17 17 15 13 18 22 19 14 11 6 5 7 5 7 13 10 16 22 20 21 20 22 23 30 26 25 25
8 8 9 8 8 11 16 18 19 21 18 18 18 18 19 23 17 18 18 16 20 17 15 12 7 5 5 6 6 5 8 10 15 20 17 19 22 22 21 25 25 25 27
8 8 8 7 7 11 13 14 15 15 17 19 18 20 21 19 21 18 18 19 19 14 11 11 6 7 4 5 5 6 6 9 17 13 15 18 19 23 23 23 24 22 23
9 9 8 8 8 5 3 4 4 4 4 9 17 19 18 19 18 18 16 17 16 9 6 10 4 5 4 7 3 4 3 8 10 12 15 17 17 19 24 22 22 22 20
9 8 9 8 8 6 3 2 4 5 4 10 17 17 16 15 15 14 15 13 14 8 8 6 5 4 4 6 3 2 4 4 5 6 11 12 15 17 16 18 20 18 22
9 9 9 9 8 5 9 9 6 7 7 3 4 6 13 14 13 13 13 13 13 12 4 4 5 6 4 4 7 3 3 2 4 3 8 6 7 10 17 20 18 17 21
9 9 9 9 8 8 12 6 8 5 5 4 4 7 13 14 13 12 12 13 11 10 6 4 8 4 4 4 3 4 4 2 2 4 4 5 5 7 11 15 17 17 20
9 8 8 8 8 8 8 8 5 6 4 4 5 7 8 12 14 12 10 11 10 9 8 8 6 6 4 3 3 2 4 3 3 2 3 4 3 4 11 12 15 17 17
10 8 8 9 8 8 7 8 9 10 8 6 4 5 4 4 11 11 10 9 9 9 7 8 7 8 5 4 3 4 2 1 2 2 1 3 3 4 5 13 12 15 15
Wind_Direction
84 98 99 105 107 107 105 101 96 94 88 83 76 72 65 60 57 56 59 67 70 70 68 72 69 69 61 58 51 48 51 53 54 63 72 80 84 79 62 102 84 80 79
114 95 98 100 103 104 101 97 92 87 82 78 71 65 61 57 56 54 51 53 57 63 64 59 60 54 54 45 30 35 37 37 41 49 91 88 85 83 82 83 83 85 86
101 94 90 92 91 93 94 89 85 82 77 72 68 66 63 59 55 52 51 50 52 53 52 55 51 48 39 32 23 12 21 11 9 3 339 95 102 103 96 92 86 85 90
96 88 88 89 83 81 78 78 77 75 73 71 69 66 64 59 51 55 55 55 51 51 51 51 49 46 44 36 24 11 5 3 358 357 354 210 101 96 94 86 81 79 67
86 91 90 88 88 82 83 85 82 77 69 64 63 61 58 59 56 52 45 45 45 43 43 45 46 47 39 38 33 18 1 5 5 356 15 106 294 60 60 60 57 65 60
87 86 87 86 85 86 84 76 74 71 69 64 61 59 59 57 55 56 53 53 52 49 44 39 37 34 32 26 21 16 3 14 20 52 59 47 50 49 40 43 44 28 23
93 84 83 88 91 89 91 91 85 83 79 76 73 70 67 59 56 53 49 46 42 40 38 40 45 42 36 24 15 10 3 24 46 58 58 48 39 46 43 39 45 39 27
98 90 90 88 91 92 90 92 85 80 83 88 82 74 71 66 62 59 54 48 46 45 40 39 36 32 31 27 18 16 8 22 48 65 52 42 28 26 41 29 32 31 31
101 98 91 85 78 77 81 82 80 83 87 92 95 86 82 71 59 61 57 50 45 44 41 32 24 14 21 18 23 20 27 36 71 71 60 41 36 30 30 26 28 24 24
102 112 108 100 91 82 78 72 73 71 69 76 90 100 86 71 62 56 51 41 33 28 26 32 35 32 24 10 15 28 23 22 53 66 54 50 45 40 38 33 27 30 21
85 83 100 99 91 87 83 79 72 67 67 67 59 73 70 57 45 41 36 35 38 30 22 32 32 29 35 37 24 24 27 26 70 66 61 57 53 49 44 43 44 30 26
80 73 82 86 90 82 76 83 80 75 70 66 66 63 66 69 65 63 51 46 41 33 34 32 28 28 31 33 27 26 30 68 71 72 68 62 56 52 50 47 51 47 41
85 81 68 72 75 86 85 86 82 80 77 70 72 70 72 70 63 52 46 37 31 30 29 21 12 15 23 32 32 30 40 76 81 77 71 67 57 52 51 50 47 44 42
79 81 79 94 98 96 95 95 100 91 79 70 73 74 72 63 53 43 39 36 34 27 19 22 13 15 24 22 33 51 54 67 88 78 72 70 60 55 51 49 48 45 47
102 100 101 104 102 107 98 94 91 83 75 73 72 72 68 60 56 49 41 42 39 31 21 19 20 12 23 20 18 6 63 64 95 84 81 77 69 57 54 50 46 44 46
128 128 133 122 116 117 113 112 96 93 90 78 70 64 57 60 62 53 40 33 41 38 25 21 19 14 20 19 6 6 43 58 74 116 95 88 79 62 56 54 44 41 44
138 141 144 131 127 123 124 120 121 110 98 79 65 59 58 67 66 54 40 27 53 41 30 21 12 17 18 14 9 358 33 20 71 60 83 69 60 44 47 56 45 43 40
152 159 135 129 123 121 119 107 106 105 100 88 75 63 54 51 70 59 41 29 52 45 32 19 11 8 18 13 355 349 4 36 54 75 58 52 50 49 41 41 45 37 33
149 128 113 106 99 99 93 94 98 96 88 84 80 68 56 49 56 57 47 41 53 45 32 21 13 15 13 2 354 342 14 34 54 72 52 54 50 51 45 43 39 27 34
122 109 109 110 105 106 104 106 99 93 91 88 80 67 57 54 53 56 51 50 56 49 31 18 13 7 17 339 351 22 64 53 56 59 44 51 47 51 46 47 36 25 35
122 124 131 121 139 131 130 127 108 114 102 86 85 77 66 58 54 57 53 53 59 54 45 30 356 10 359 352 22 11 50 48 58 51 39 39 31 41 38 40 30 37 33
141 145 142 154 165 172 155 152 130 133 119 121 102 90 79 66 62 58 56 54 57 47 36 29 31 8 6 16 18 29 4 338 28 41 43 36 26 33 25 22 14 31 42
149 154 162 173 188 162 136 117 101 93 104 89 90 99 98 90 81 73 64 64 63 53 42 29 34 48 35 356 33 80 26 327 335 356 24 28 18 21 14 12 13 39 34
167 167 175 183 154 149 140 137 148 148 156 162 154 136 117 112 94 88 79 68 70 58 46 20 44 57 66 35 358 21 58 101 31 335 355 8 7 13 3 0 12 32 36
167 182 175 169 155 156 163 166 154 150 139 146 143 129 131 119 110 96 95 82 67 59 44 37 47 51 46 61 50 351 15 12 51 74 308 331 360 348 351 353 15 26 32
173 176 168 165 165 172 170 173 156 148 146 140 138 137 137 118 103 100 87 88 76 65 49 34 63 72 57 52 45 38 60 53 331 37 335 325 333 325 328 346 8 14 23